CZ-3B R/B, 41022

Orbit data source: Space-Track

CZ-3B R/B, 41022 is space debris in HEO originally from a launch on Tue, 03 Nov 2015 UTC launched from the Xichang Space Center, China (XSC). Debris objects in space refer to the collection of defunct objects orbiting the Earth. Examples of debris include non-operational satellites, rocket bodies, and fragments generated from explosions, collisions, or faulty payload assembly.

Loading next visibility...
Identifier
41022, 2015-063B
Orbit
HEO
Country
Flag of CNCN / PRC
Related business
Manufacturer
CALT
Mission
Spacecraft
Bus & Motor
CZ-3A STAGE 3, Unknown motor
Mass
~2,800 kg wet, ~2,800 kg dry
Launch date (UTC)
2015-11-03 (11 years ago)
Launch vehicle
Unknown
Launch site
Xichang Space Center, China (XSC)
Object type
Payload
Rocket body
Debris
Shape & HBR
Cyl + 1 Nozzle, 6.2 m
Radar Cross Section
32.704 m², Large (>1 m²)

Expand to show TLE details & history
Last TLE update: 2 days ago

TLE from 2 days ago
0 CZ-3B R/B
1 41022U 15063B   26171.35473797  .00038765  00000-0  14881-2 0  9999
2 41022  26.7558 191.0220 6150735  96.3490 332.4522  3.88364634109025
Epoch: 2026-06-20T08:30Z
TLE epoch observation values (Epoch: 2026-06-20T08:30:49.360Z)
Latitude
-0.00006°
Longitude
154.76834°
Altitude
5,006.539 km
Speed
6.834 km/s
True Right ascension
12h 44m 10s
True Declination
0° 00' 00"
Sunlit
Object was in daylight at epoch
Visualization orbit readout
Latitude
Unknown
Longitude
Unknown
Altitude
Unknown
Speed
Unknown
Apparent Right ascension
Unknown
Apparent Declination
Unknown
Sunlit
N/A
Visualization observer readout
Local Sidereal Time
21:31:55
Azimuth
Unknown
Elevation
Unknown
Doppler factor
Unknown
Orbital elements
Apogee altitude
21,239.989 km
Perigee altitude
204.194 km
Semi-major axis
17,100.228 km
Eccentricity
0.61507
Inclination
26.7558°
RAAN
191.022°
Arg. of periapsis
96.349°
True anomaly
263.73597°
Mean anomaly
332.4522°
Eccentric anomaly
302.84455°
Mean motion
0.9706 °/min
Orbital period
370.9 mins
BSTAR
0.0014881
Loading maneuver chart data...
Computing Atmospheric mass density...
Loading historical data...
Loading historical data...
Loading historical data...
Loading historical data...
Loading historical data...
Loading historical data...
Loading historical data...
Other satellites on launch #63 in the year 2015 (2015-11-03 UTC)

Documentation

Showing up to 5 results
|